Back to catalog

STARLINK-31568

AliveCommunicationsVLEO
NORAD 59412·PAYLOAD·🇺🇸 United States

Launched Apr 5, 2024 from Cape Canaveral Space Force Station

Loading…

Next Passes (next 24 hours)

TLE

FreshSource: CelesTrak SupGP

Epoch: Sep 14, 2026, 22:41 UTC

1 59412C 24064Q   26257.94562500  .00059533  00000+0  21563-2 0  2570
2 59412  43.0027  67.5091 0001422 272.6728 252.7501 15.27547995    17

Track STARLINK-31568 in real time with AllMySat

Download on the App Store